Location: Unspecified
(41.4057°N, 2.1753°E)
Time: 05:51:45
(UTC+01:00)

ISS - Visible Passes

Search period start: 31 October 2014 00:00
Search period end: 10 November 2014 00:00
Orbit: 412 x 417 km, 51.6° (Epoch: 30 October)

Date Brightness Start Highest point End Pass type
(mag) Time Alt. Az. Time Alt. Az. Time Alt. Az.
07 Nov -0.4 06:55:51 10° S 06:58:26 21° SE 07:01:01 10° E visible
08 Nov 0.0 06:07:51 10° SSE 06:09:11 12° SE 06:10:31 10° ESE visible
09 Nov -2.6 06:52:41 10° SW 06:55:56 58° SE 06:59:13 10° ENE visible
